weather.gov     
National Weather Service

Terminal Aerodrome Forecast
NWS Homepage
This page is being discontinued on March 12, 2014.
The same data is available at this site. Please update your bookmarks.
Thank you, and we apologize for the inconvenience.
Please send an email to SR-SRH.Webmaster@noaa.gov with any concerns.


Current Version
Previous Version:    01  02  03  04  05  06  07  08  09  10  11  12  13  14  15  16  17  18  19  20  21  22  23  24  25  26  27  28  29  30  
   31  32  33  
[Printable]
186
FTUS44 KJAN 221100 RRA
TAFJAN
TAF
KJAN 221145Z 2212/2312 14007KT 4SM BR VCSH OVC003
     FM221600 17009KT 6SM BR VCSH OVC007
     FM221900 17009KT P6SM VCSH OVC015
     FM230000 17010KT 4SM -RA BR OVC007
     FM230800 27005KT 2SM BR OVC003=


U.S. Dept. of Commerce
NOAA National Weather Service
1325 East West Highway
Silver Spring, MD 20910
E-mail: w-nws.webmaster@noaa.gov
Page last modified: May 16, 2007
NATIONAL WEATHER SERVICE: for Safety, for Work, for Fun - FOR LIFE